Delhi Cantonment, India

5:05 AM IST on February 26, 2017 (GMT +0530)
Indira Gandhi International Airport

Weather History for VIDP - January, 2013

Change the Weather History Date:

Thursday, January 10, 2013

  Actual Average Record
Temperature  
Mean Temperature 54 °F -  
Max Temperature 68 °F 68 °F 75 °F (2016)
Min Temperature 41 °F 46 °F 42 °F (2017)
Degree Days  
Heating Degree Days 10    
Growing Degree Days 4 (Base 50)    
Moisture  
Dew Point 41 °F    
Average Humidity 64    
Maximum Humidity 100    
Minimum Humidity 33    
Precipitation  
Precipitation 0.00 in - - ()
Sea Level Pressure  
Sea Level Pressure 29.98 in    
Wind  
Wind Speed 7 mph ()    
Max Wind Speed 16 mph    
Max Gust Speed 21 mph    
Visibility 1.6 miles    
Events Fog    
Averages and records for this station are not official NWS values.
T = Trace of Precipitation, MM = Missing Value Source: Averaged Metar Reports

Daily Weather History Graph

Daily Weather History Graph

Search for Another Location

Airport or City:

Trip Planner

Search our weather history database for the weather conditions in past years. The results will help you decide how hot, cold, wet, or windy it might be!

Date:

Astronomy

Jan. 10, 2013 Rise Set
Actual Time 7:15 AM IST 5:42 PM IST
Civil Twilight 6:49 AM IST 6:08 PM IST
Nautical Twilight 6:20 AM IST 6:37 PM IST
Astronomical Twilight 5:52 AM IST 7:06 PM IST
Moon 5:27 AM IST (1/10) 4:19 PM IST (1/10)
Length of Visible Light 11h 18m
Length of Day
10h 27m
Waning Crescent, 3% of the Moon is Illuminated
Jan 10
Waning Crescent
Jan 12
New
Jan 19
First Quarter
Jan 27
Full
Feb 3
Last Quarter

Hourly Weather History & Observations

Time (IST) Temp. Windchill Dew Point Humidity Pressure Visibility Wind Dir Wind Speed Gust Speed Precip Events Conditions
12:00 AM 50.0 °F - 41.0 °F 71% 30.01 in 1.0 mi West 5.8 mph - N/A   Smoke
12:30 AM 48.2 °F - 41.0 °F 76% 29.98 in 1.0 mi West 5.8 mph - N/A   Smoke
1:00 AM 48.2 °F - 41.0 °F 76% 29.98 in 1.1 mi West 6.9 mph - N/A   Smoke
1:30 AM 48.2 °F - 42.8 °F 82% 29.98 in 1.2 mi West 6.9 mph - N/A   Mist
2:00 AM 48.2 °F - 42.8 °F 82% 29.98 in 1.1 mi West 6.9 mph - N/A   Mist
2:30 AM 48.2 °F - 42.8 °F 82% 29.98 in 1.1 mi West 6.9 mph - N/A   Mist
3:00 AM 46.4 °F 43.5 °F 42.8 °F 87% 29.98 in 1.1 mi WSW 5.8 mph - N/A   Mist
3:30 AM 44.6 °F 42.2 °F 44.6 °F 100% 29.98 in 1.0 mi WSW 4.6 mph - N/A   Mist
4:00 AM 44.6 °F 41.4 °F 44.6 °F 100% 29.98 in 1.0 mi West 5.8 mph - N/A   Mist
5:00 AM 44.6 °F 40.7 °F 42.8 °F 93% 29.95 in 0.6 mi West 6.9 mph - N/A   Mist
5:30 AM 42.8 °F 38.6 °F 42.8 °F 100% 29.95 in 0.6 mi WSW 6.9 mph - N/A   Mist
6:00 AM 42.8 °F 38.6 °F 42.8 °F 100% 29.95 in 0.6 mi West 6.9 mph - N/A Fog Shallow Fog
7:30 AM 41.0 °F 36.4 °F 41.0 °F 100% 30.01 in 0.4 mi West 6.9 mph - N/A Fog Shallow Fog
8:00 AM 41.0 °F 37.1 °F 41.0 °F 100% 30.01 in 0.4 mi West 5.8 mph - N/A Fog Shallow Fog
8:30 AM 44.6 °F 40.7 °F 44.6 °F 100% 30.01 in 0.4 mi West 6.9 mph - N/A Fog Shallow Fog
11:00 AM 59.0 °F - 44.6 °F 59% 30.04 in 1.6 mi WNW 11.5 mph - N/A   Smoke
11:30 AM 60.8 °F - 42.8 °F 52% 30.01 in 1.6 mi WNW 13.8 mph - N/A   Smoke
12:00 PM 62.6 °F - 41.0 °F 45% 30.01 in 1.7 mi WNW 15.0 mph - N/A   Smoke
1:00 PM 66.2 °F - 39.2 °F 37% 29.98 in 2.2 mi West 16.1 mph - N/A   Haze
1:30 PM 66.2 °F - 39.2 °F 37% 29.98 in 2.2 mi WNW 16.1 mph - N/A   Haze
2:00 PM 68.0 °F - 39.2 °F 35% 29.98 in 2.5 mi West 16.1 mph - N/A   Haze
2:30 PM 68.0 °F - 39.2 °F 35% 29.98 in 2.5 mi West 16.1 mph - N/A   Haze
3:00 PM 68.0 °F - 39.2 °F 35% 29.95 in 2.5 mi WNW 9.2 mph 20.7 mph N/A   Haze
3:30 PM 68.0 °F - 37.4 °F 33% 29.95 in 2.5 mi WNW 9.2 mph 20.7 mph N/A   Haze
4:00 PM 68.0 °F - 37.4 °F 33% 29.95 in 2.5 mi WNW 9.2 mph 20.7 mph N/A   Haze
4:30 PM 66.2 °F - 37.4 °F 35% 29.95 in 2.5 mi WNW 9.2 mph 20.7 mph N/A   Haze
5:00 PM 66.2 °F - 37.4 °F 35% 29.95 in 2.5 mi WNW 12.7 mph - N/A   Haze
5:30 PM 64.4 °F - 37.4 °F 37% 29.95 in 2.5 mi WNW 11.5 mph - N/A   Haze
6:00 PM 60.8 °F - 39.2 °F 45% 29.98 in 2.5 mi West 6.9 mph - N/A   Haze
6:30 PM 60.8 °F - 42.8 °F 52% 29.98 in 2.5 mi West 6.9 mph - N/A   Haze
7:00 PM 59.0 °F - 39.2 °F 48% 29.98 in 2.2 mi West 6.9 mph - N/A   Haze
7:30 PM 59.0 °F - 39.2 °F 48% 29.98 in - West 6.9 mph - N/A   Haze
8:30 PM 57.2 °F - 41.0 °F 55% 29.98 in 1.5 mi West 6.9 mph - N/A   Smoke
9:00 PM 55.4 °F - 41.0 °F 58% 29.98 in 1.5 mi West 6.9 mph - N/A   Smoke
9:30 PM 55.4 °F - 41.0 °F 58% 29.98 in 1.4 mi West 6.9 mph - N/A   Smoke
10:00 PM 55.4 °F - 41.0 °F 58% 29.98 in 1.4 mi WSW 5.8 mph - N/A   Smoke
10:30 PM 51.8 °F - 41.0 °F 67% 29.98 in 1.4 mi West 4.6 mph - N/A   Smoke
11:00 PM 51.8 °F - 41.0 °F 67% 29.98 in 1.4 mi West 5.8 mph - N/A   Smoke
11:30 PM 50.0 °F - 41.0 °F 71% 29.98 in 1.4 mi West 5.8 mph - N/A   Smoke